Regional Weather Roundup
Issued by NWS

Home | Current Version | Previous Version | Graphics & Text | Print | Product List | Glossary On
Versions: 1 2 3 4 5 6 7 8 9 10 11 12 13 14 15 16 17 18 19 20 21 22 23 24 25 26 27 28 29 30 31 32 33 34 35 36 37 38 39 40 41 42 43 44 45 46 47 48 49 50
000
ASUS45 KBOU 241407
RWRCO

WEATHER ROUNDUP FOR COLORADO
NATIONAL WEATHER SERVICE DENVER/BOULDER CO
800 AM MDT FRI APR 24 2015

NOTE: "FAIR" INDICATES FEW OR NO CLOUDS BELOW 12000 FEET WITH NO
SIGNIFICANT WEATHER AND/OR OBSTRUCTIONS TO VISIBILITY.

COZ001>005-013-030-031-241500-
...NORTHWEST COLORADO...

CITY           SKY/WX    TMP DP  RH WIND       PRES   REMARKS
CRAIG          SUNNY     35  31  85 CALM      29.82S
HAYDEN         SUNNY     39  30  70 E8        29.82S
MEEKER         MOSUNNY   36  29  75 CALM      29.83R
MOUNT WERNER   NOT AVBL
STEAMBOAT SPGS SUNNY     33  29  86 CALM      29.83F
WALDEN         SUNNY     36  28  75 SE6       29.84S
$$

COZ006>008-011-241500-
...WEST CENTRAL VALLEYS...

CITY           SKY/WX    TMP DP  RH WIND       PRES   REMARKS
GRAND JUNCTION MOSUNNY   49  32  52 SE14      29.77S
MONTROSE       PTSUNNY   46  31  55 S5        29.84S
EAGLE          MOSUNNY   36  28  75 CALM      29.89S
RIFLE          MOSUNNY   41  32  70 N3        29.82S
DELTA          PTSUNNY   46  31  57 E5        29.84R
NUCLA          PTSUNNY   43  28  56 CALM      29.88S
$$

COZ017>023-064>068-241500-
...SOUTHWEST COLORADO...

CITY           SKY/WX    TMP DP  RH WIND       PRES   REMARKS
DURANGO        MOSUNNY   36  34  92 CALM      29.90R
CORTEZ         SUNNY     48  30  49 CALM      29.87R
PAGOSA SPRINGS MOSUNNY   34  34 100 CALM      29.92S
TELLURIDE      PTSUNNY   38  21  49 CALM      29.92F
WOLF CREEK PAS PTSUNNY   23  19  86 SW10      30.00F WCI  12
$$

COZ009-010-012-014-032>034-037-058>063-241500-
...CENTRAL COLORADO...

CITY           SKY/WX    TMP DP  RH WIND       PRES   REMARKS
ASPEN          PTSUNNY   37  23  56 CALM      29.86S
BUENA VISTA    PTSUNNY   37  28  72 W5        29.88F
COPPER MTN     NOT AVBL
BERTHOUD PASS  FAIR      21  12  68 NW15G22   29.97R WCI   8
COTTONWOOD PAS PTSUNNY   37  23  56 N8        29.91F
GUNNISON       CLOUDY    34  25  69 CALM      29.93F
KREMMLING      CLOUDY    34  30  86 E6        29.88F WCI  29
LEADVILLE      MOSUNNY   29  16  58 NE3       29.91R
MONARCH PASS   CLOUDY    23  21  93 MISG      30.05F
SALIDA         PTSUNNY   41  28  60 NW9       29.93F
SUNLIGHT       MOSUNNY   32  21  64 CALM      29.97F
WILKERSON PASS MOSUNNY   30  14  51 NW9       29.96F WCI  22
$$

COZ069>075-241500-
...SAN LUIS VALLEY/SANGRE DE CRISTO MOUNTAINS...

CITY           SKY/WX    TMP DP  RH WIND       PRES   REMARKS
ALAMOSA        PTSUNNY   44  30  57 VRB6      29.87F
LA VETA PASS   PTSUNNY   32  25  74 W5        29.92F WCI  27
SAGUACHE       CLOUDY    37  30  75 NW8       29.90S
$$

COZ035-036-038>040-241500-
...NORTHERN COLORADO FRONT RANGE...

CITY           SKY/WX    TMP DP  RH WIND       PRES   REMARKS
DENVER INTL AP MOSUNNY   49  31  49 S12       29.74S
DMNS CITY PARK   N/A     50  28  42 S7        29.73F
AURORA         MOSUNNY   50  29  45 S8        29.76S
FRONT RANGE AP MOSUNNY   46  37  71 S5        29.76S
ERIE MUNI ARPT PTSUNNY   49  37  63 CALM      29.73S
BOULDER MUN AP SUNNY     50  32  50 CALM      29.73S
CENTENNIAL     MOSUNNY   51  28  41 SW9       29.76S
BROOMFIELD     MOSUNNY   46  34  61 CALM      29.75S
FORT COLLINS   SUNNY     46  37  71 N5        29.75S
LONGMONT       SUNNY     52  37  56 CALM      29.74F
$$

COZ041-046-047-076>085-087-088-241500-
...PIKES PEAK/PALMER DIVIDE AND SOUTHERN FOOTHILLS...

CITY           SKY/WX    TMP DP  RH WIND       PRES   REMARKS
COLO. SPRINGS  PTSUNNY   47  32  56 E6        29.77F
A. F. ACADEMY  MOSUNNY   53  20  28 NE9       29.77F
ELLICOTT       MOSUNNY  N/A N/A N/A N3        29.76F
FALCON         MOSUNNY   49  22  33 N3        29.80S
FORT CARSON    MOSUNNY   43  30  60 W5        29.75S
LIMON          MOSUNNY   44  36  73 W5        29.74F
MONUMENT HILL  SUNNY     46  25  42 W3        29.79S
TRINIDAD       PTSUNNY   49  29  46 W7        29.76F
$$

COZ042>045-048>051-090-091-241500-
...NORTHEAST COLORADO...

CITY           SKY/WX    TMP DP  RH WIND       PRES   REMARKS
GREELEY ARPT   MOSUNNY   46  36  66 CALM      29.74S
AKRON          MOSUNNY   49  48  97 W10       29.71S
BURLINGTON     MOSUNNY   53  49  86 W6        29.71F
WRAY           PTSUNNY   56  52  86 SW8       29.68F
STERLING       CLOUDY    46  46 100 SW7       29.71S FOG
HOLYOKE        CLOUDY    54  50  87 SW13      29.69R
FORT MORGAN    SUNNY     50  44  78 W8        29.73S
$$

COZ086-089-092>099-241500-
...SOUTHEAST COLORADO...

CITY           SKY/WX    TMP DP  RH WIND       PRES   REMARKS
PUEBLO         PTSUNNY   47  37  68 NW7       29.73F
LA JUNTA       CLOUDY    49  48  97 SW3       29.73S FOG
LAMAR          CLOUDY    54  50  86 NW6       29.70S
SPRINGFIELD      N/A     56  36  47 NW7       29.70F
$$



USA.gov is the U.S. government's official web portal to all federal, state and local government web resources and services.